Weather History for Reading, PA

Change the Weather History Date:

Saturday, January 26, 2013

  Actual Average Record
Temperature  
Mean Temperature 20 °F 30 °F  
Max Temperature 27 °F 38 °F 77 °F (1950)
Min Temperature 12 °F 21 °F 0 °F (1982)
Degree Days  
Heating Degree Days 45 36  
Month to date heating degree days 827 921  
Since 1 July heating degree days 2664 2952  
Cooling Degree Days 0 0  
Month to date cooling degree days 0 0  
Year to date cooling degree days 0 0  
Moisture  
Dew Point 10 °F    
Average Humidity 71    
Maximum Humidity 92    
Minimum Humidity 50    
Precipitation  
Precipitation 0.00 in 0.09 in 2.03 in (1978)
Month to date precipitation 1.19 2.64  
Year to date precipitation 1.19 2.64  
Sea Level Pressure  
Sea Level Pressure 30.24 in    
Wind  
Wind Speed 7 mph (WNW)    
Max Wind Speed 17 mph    
Max Gust Speed 21 mph    
Visibility 9 miles    
Events      
T = Trace of Precipitation, MM = Missing Value Source: NWS Daily Summary

Daily Weather History Graph

Daily Weather History Graph

Search for Another Location

Airport:

Trip Planner

Search our weather history database for the weather conditions in past years. The results will help you decide how hot, cold, wet, or windy it might be!

Date:

Astronomy

Jan. 26, 2013 Rise Set
Actual Time 7:18 AM EST 5:15 PM EST
Civil Twilight 6:48 AM EST 5:44 PM EST
Nautical Twilight 6:16 AM EST 6:17 PM EST
Astronomical Twilight 5:43 AM EST 6:49 PM EST
Moon 5:08 PM EST (1/26) 6:34 AM EST (1/26)
Length of Visible Light 10h 55m
Length of Day
9h 57m
Full, 100% of the Moon is Illuminated
Jan 26
Full
Jan 26
Full
Feb 3
Last Quarter
Feb 10
New
Feb 17
First Quarter

Hourly Weather History & Observations

Time (EST) Temp. Windchill Dew Point Humidity Pressure Visibility Wind Dir Wind Speed Gust Speed Precip Events Conditions
12:45 AM 12.2 °F - 8.6 °F 85% 30.08 in 8.0 mi Calm Calm - N/A   Overcast
12:54 AM 12.9 °F - 10.0 °F 88% 30.11 in 8.0 mi Calm Calm - N/A   Overcast
1:54 AM 12.9 °F - 10.0 °F 88% 30.11 in 8.0 mi Calm Calm - N/A   Overcast
2:54 AM 15.1 °F - 12.0 °F 88% 30.10 in 7.0 mi Calm Calm - N/A   Overcast
3:54 AM 15.1 °F 9.4 °F 12.0 °F 88% 30.12 in 7.0 mi West 3.5 mph - N/A   Overcast
4:54 AM 16.0 °F 10.4 °F 12.0 °F 84% 30.13 in 7.0 mi West 3.5 mph - N/A   Overcast
5:54 AM 16.0 °F 6.3 °F 12.0 °F 84% 30.14 in 8.0 mi West 6.9 mph - N/A   Mostly Cloudy
6:54 AM 15.1 °F 5.2 °F 10.0 °F 80% 30.18 in 8.0 mi WNW 6.9 mph - N/A   Clear
7:54 AM 16.0 °F 7.4 °F 10.9 °F 81% 30.20 in 8.0 mi NW 5.8 mph - N/A   Mostly Cloudy
8:54 AM 18.0 °F 6.9 °F 10.9 °F 74% 30.22 in 10.0 mi NW 9.2 mph - N/A   Overcast
9:54 AM 19.9 °F 11.1 °F 10.0 °F 65% 30.24 in 10.0 mi NW 6.9 mph - N/A   Overcast
10:54 AM 21.9 °F 11.7 °F 10.9 °F 63% 30.27 in 10.0 mi NW 9.2 mph - 0.00 in   Overcast
11:54 AM 23.0 °F 13.9 °F 10.9 °F 60% 30.24 in 10.0 mi WNW 8.1 mph - N/A   Overcast
12:54 PM 26.1 °F 16.2 °F 12.0 °F 55% 30.23 in 10.0 mi WNW 10.4 mph - 0.00 in   Mostly Cloudy
1:54 PM 26.1 °F 16.8 °F 10.9 °F 53% 30.23 in 10.0 mi WNW 9.2 mph - 0.00 in   Partly Cloudy
2:54 PM 27.0 °F 15.2 °F 10.9 °F 51% 30.24 in 10.0 mi West 15.0 mph 19.6 mph 0.00 in   Clear
3:54 PM 27.0 °F 14.7 °F 10.9 °F 51% 30.25 in 10.0 mi WNW 16.1 mph 20.7 mph N/A   Clear
4:54 PM 25.0 °F 12.6 °F 10.0 °F 53% 30.27 in 10.0 mi NW 15.0 mph - N/A   Clear
5:54 PM 23.0 °F 13.1 °F 9.0 °F 55% 30.30 in 10.0 mi NW 9.2 mph - N/A   Clear
6:54 PM 21.9 °F 14.5 °F 9.0 °F 58% 30.33 in 10.0 mi WNW 5.8 mph - N/A   Clear
7:54 PM 21.0 °F 12.4 °F 10.0 °F 63% 30.35 in 10.0 mi WNW 6.9 mph - N/A   Clear
8:54 PM 19.9 °F 12.1 °F 10.0 °F 65% 30.38 in 10.0 mi West 5.8 mph - N/A   Clear
9:54 PM 18.0 °F 11.1 °F 9.0 °F 68% 30.40 in 10.0 mi West 4.6 mph - N/A   Clear
10:54 PM 18.0 °F 12.7 °F 10.0 °F 71% 30.42 in 10.0 mi West 3.5 mph - N/A   Clear
11:54 PM 14.0 °F - 8.1 °F 77% 30.44 in 10.0 mi Calm Calm - N/A   Clear